TimePDT,TemperatureF,Dew PointF,Humidity,Sea Level PressureIn,VisibilityMPH,Wind Direction,Wind SpeedMPH,Gust SpeedMPH,PrecipitationIn,Events,Conditions,WindDirDegrees,DateUTC
12:53 AM,53.1,46.9,80,30.35,10.0,Calm,Calm,-,N/A,,Overcast,0,2013-05-19 07:53:00
1:13 AM,53.6,46.4,77,30.34,10.0,Calm,Calm,-,N/A,,Overcast,0,2013-05-19 08:13:00
1:53 AM,53.1,46.9,80,30.35,10.0,Calm,Calm,-,N/A,,Overcast,0,2013-05-19 08:53:00
2:53 AM,53.1,48.0,83,30.36,10.0,Calm,Calm,-,N/A,,Overcast,0,2013-05-19 09:53:00
3:53 AM,53.1,46.9,80,30.37,10.0,SE,3.5,-,N/A,,Overcast,140,2013-05-19 10:53:00
4:31 AM,53.6,48.2,82,30.37,10.0,Calm,Calm,-,0.01,Rain,Light Rain,0,2013-05-19 11:31:00
5:53 AM,53.1,48.9,86,30.38,10.0,Calm,Calm,-,N/A,,Overcast,0,2013-05-19 12:53:00
6:53 AM,53.1,48.0,83,30.38,5.0,SE,3.5,-,N/A,,Haze,130,2013-05-19 13:53:00
7:43 AM,53.6,50.0,88,30.39,5.0,Calm,Calm,-,0.00,Rain,Light Rain,0,2013-05-19 14:43:00
7:53 AM,53.1,50.0,89,30.39,7.0,Calm,Calm,-,0.00,,Overcast,0,2013-05-19 14:53:00
8:05 AM,53.6,50.0,88,30.39,6.0,Calm,Calm,-,N/A,,Overcast,0,2013-05-19 15:05:00
8:53 AM,53.1,50.0,89,30.40,10.0,Calm,Calm,-,N/A,,Overcast,0,2013-05-19 15:53:00
9:49 AM,55.4,51.8,88,30.40,8.0,Calm,Calm,-,0.00,,Overcast,0,2013-05-19 16:49:00
9:53 AM,55.9,51.1,84,30.40,9.0,Calm,Calm,-,0.00,,Overcast,0,2013-05-19 16:53:00
10:53 AM,57.9,48.9,72,30.40,10.0,North,5.8,-,N/A,,Overcast,10,2013-05-19 17:53:00
11:34 AM,60.8,48.2,63,30.38,10.0,Variable,5.8,-,N/A,,Overcast,0,2013-05-19 18:34:00
12:22 PM,62.6,48.2,59,30.37,10.0,WNW,9.2,-,N/A,,Overcast,300,2013-05-19 19:22:00
12:32 PM,62.6,48.2,59,30.37,10.0,NNW,5.8,-,N/A,,Mostly Cloudy,330,2013-05-19 19:32:00
1:53 PM,66.0,48.0,52,30.36,10.0,North,10.4,17.3,N/A,,Mostly Cloudy,360,2013-05-19 20:53:00
2:53 PM,66.9,46.9,49,30.35,10.0,North,13.8,19.6,N/A,,Mostly Cloudy,10,2013-05-19 21:53:00
4:53 PM,69.1,45.0,42,30.31,10.0,North,12.7,-,N/A,,Clear,360,2013-05-19 23:53:00
5:53 PM,68.0,45.0,43,30.30,10.0,North,13.8,20.7,N/A,,Clear,10,2013-05-20 00:53:00
6:53 PM,66.9,43.0,42,30.29,10.0,NNW,10.4,-,N/A,,Clear,340,2013-05-20 01:53:00
7:53 PM,66.0,39.9,38,30.28,10.0,North,9.2,-,N/A,,Clear,350,2013-05-20 02:53:00
9:53 PM,61.0,45.0,56,30.30,10.0,NW,3.5,-,N/A,,Clear,320,2013-05-20 04:53:00
10:53 PM,57.0,46.0,67,30.30,10.0,Calm,Calm,-,N/A,,Clear,0,2013-05-20 05:53:00
11:53 PM,55.9,46.0,69,30.29,10.0,Calm,Calm,-,N/A,,Clear,0,2013-05-20 06:53:00